Find Starlink 34941

NORAD ID: 65210 Int'l Des: 2025-176 Owner: SPXS Country: US Constellation: starlink operational
LEOCIRCULAR

当前视图

正在加载3D地球...

关于 Starlink 34941

正在加载描述...

即将过境

Passes for default location (London). Set your location on the main map for personalized predictions.

高度历史

Loading altitude history...

两行轨道根数

1 65210U 25176N 26150.36569111 .00033479 00000-0 99754-3 0 9994
2 65210 53.1592 132.7705 0001388 73.3812 286.7343 15.34401544 45632
Epoch: May 30, 2026 • Age: 18 hours

当前状态

高度 480.6 km
速度 7.62 km/s
星下点 -49.99°S, 129.68°E
发射日期 Aug 14, 2025
运行时间 0.7 years
类型 internet

技术详情

分类 Payload
质量 575.00 kg
干质量 530.00 kg
总质量 575.00 kg
长度 0.30 m
直径 4.10 m
跨度 29.00 m
形状 Box + pan
制造商 SPXS
平台类型 Starlink V2MO
阶段状态 In Orbit
所有者/国家 SPXS/US

Most Searched